Weather History for Grand Island, NE

Change the Weather History Date:

Sunday, October 7, 2012

  Actual Average Record
Temperature  
Mean Temperature 41 °F 56 °F  
Max Temperature 57 °F 69 °F 91 °F (1980)
Min Temperature 25 °F 43 °F 19 °F (2000)
Degree Days  
Heating Degree Days 24 10  
Month to date heating degree days 112 62  
Since 1 July heating degree days 182 177  
Cooling Degree Days 0 1  
Month to date cooling degree days 2 7  
Year to date cooling degree days 1505 1030  
Moisture  
Dew Point 27 °F    
Average Humidity 66    
Maximum Humidity 100    
Minimum Humidity 32    
Precipitation  
Precipitation 0.00 in 0.06 in 2.17 in (1992)
Month to date precipitation 0.01 0.48  
Year to date precipitation 8.59 23.48  
Snow  
Snow 0.00 in 0.00 in - ()
Month to date snowfall 0.0 0.1  
Since 1 July snowfall 0.0 0.2  
Since 1 September snowfall 0.0 0.2  
Snow Depth 0.00 in    
Sea Level Pressure  
Sea Level Pressure 30.21 in    
Wind  
Wind Speed 13 mph (WSW)    
Max Wind Speed 24 mph    
Max Gust Speed 39 mph    
Visibility 10 miles    
Events      
T = Trace of Precipitation, MM = Missing Value Source: NWS Daily Summary

Daily Weather History Graph

Daily Weather History Graph

Search for Another Location

Airport:

Trip Planner

Search our weather history database for the weather conditions in past years. The results will help you decide how hot, cold, wet, or windy it might be!

Date:

Astronomy

Oct. 07, 2012 Rise Set
Actual Time 7:36 AM CDT 7:04 PM CDT
Civil Twilight 7:09 AM CDT 7:31 PM CDT
Nautical Twilight 6:37 AM CDT 8:03 PM CDT
Astronomical Twilight 6:05 AM CDT 8:35 PM CDT
Moon No Moon Rise 2:16 PM CDT (10/7)
Length of Visible Light 12h 22m
Length of Day
11h 27m
Waning Gibbous, 56% of the Moon is Illuminated
Oct 7
Waning Gibbous
Oct 8
Last Quarter
Oct 15
New
Oct 21
First Quarter
Oct 29
Full

Hourly Weather History & Observations

Time (CDT) Temp. Windchill Dew Point Humidity Pressure Visibility Wind Dir Wind Speed Gust Speed Precip Events Conditions
12:53 AM 30.0 °F 23.2 °F 28.0 °F 92% 30.37 in 10.0 mi West 6.9 mph - N/A   Clear
1:53 AM 28.0 °F 20.8 °F 25.0 °F 88% 30.36 in 10.0 mi West 6.9 mph - N/A   Clear
2:53 AM 27.0 °F 19.5 °F 26.1 °F 96% 30.35 in 10.0 mi West 6.9 mph - N/A   Clear
3:53 AM 28.0 °F 20.8 °F 26.1 °F 92% 30.34 in 10.0 mi West 6.9 mph - N/A   Clear
4:53 AM 27.0 °F 20.5 °F 25.0 °F 92% 30.32 in 10.0 mi WSW 5.8 mph - N/A   Clear
5:53 AM 27.0 °F 18.7 °F 25.0 °F 92% 30.31 in 10.0 mi West 8.1 mph - N/A   Clear
6:53 AM 27.0 °F 19.5 °F 24.1 °F 89% 30.31 in 10.0 mi WSW 6.9 mph - N/A   Clear
7:53 AM 27.0 °F 18.7 °F 24.1 °F 89% 30.32 in 10.0 mi WSW 8.1 mph - N/A   Clear
8:53 AM 30.9 °F 21.2 °F 27.0 °F 85% 30.32 in 10.0 mi WSW 12.7 mph - N/A   Clear
9:53 AM 37.9 °F 30.0 °F 28.9 °F 70% 30.31 in 10.0 mi West 12.7 mph - N/A   Clear
10:53 AM 43.0 °F 36.8 °F 28.9 °F 58% 30.28 in 10.0 mi WSW 11.5 mph - N/A   Clear
11:53 AM 48.0 °F - 28.0 °F 46% 30.25 in 10.0 mi WSW 16.1 mph - N/A   Clear
12:53 PM 52.0 °F - 28.0 °F 40% 30.22 in 10.0 mi SW 15.0 mph 26.5 mph N/A   Clear
1:53 PM 54.0 °F - 27.0 °F 35% 30.18 in 10.0 mi SW 18.4 mph 28.8 mph N/A   Clear
2:53 PM 54.0 °F - 25.0 °F 33% 30.14 in 10.0 mi SW 16.1 mph 29.9 mph N/A   Clear
3:53 PM 55.9 °F - 27.0 °F 33% 30.11 in 10.0 mi SW 19.6 mph 23.0 mph N/A   Clear
4:53 PM 55.9 °F - 27.0 °F 33% 30.08 in 10.0 mi WSW 18.4 mph - N/A   Clear
5:53 PM 55.9 °F - 26.1 °F 32% 30.06 in 10.0 mi WSW 15.0 mph - N/A   Clear
6:53 PM 53.1 °F - 26.1 °F 35% 30.06 in 10.0 mi SW 13.8 mph - N/A   Clear
7:53 PM 48.0 °F - 27.0 °F 44% 30.07 in 10.0 mi SSW 9.2 mph - N/A   Clear
8:53 PM 46.9 °F - 28.0 °F 48% 30.06 in 10.0 mi SSW 10.4 mph - N/A   Clear
9:53 PM 46.0 °F 39.3 °F 32.0 °F 58% 30.05 in 10.0 mi SSW 16.1 mph 24.2 mph N/A   Clear
10:53 PM 45.0 °F 37.9 °F 34.0 °F 65% 30.04 in 10.0 mi SSW 16.1 mph - N/A   Clear
11:53 PM 45.0 °F 37.9 °F 35.1 °F 68% 30.02 in 10.0 mi SW 16.1 mph - N/A   Clear